"Time","Temp","Dewpoint","Humidity","Pressure","Direction","Speed","Gust","Precip","PrecipRate"
"00:04:57","76.8","72.3","86","30.01","174","0","0","0.00","0.00"
"00:09:57","76.7","72.2","86","30.01","174","0","0","0.00","0.00"
"00:14:57","76.7","72.2","86","30.01","174","0","0","0.00","0.00"
"00:19:57","76.7","72.3","86.5","30.01","174","0","0","0.00","0.00"
"00:24:58","76.7","72.4","86.8","30.01","134","0.2","3.6","0.00","0.00"
"00:29:58","76.7","72.5","86.8","30.01","134","1.4","3.6","0.00","0.00"
"00:34:58","76.7","72.5","87","30.01","134","0.4","2.4","0.00","0.00"
"00:39:59","76.6","72.4","87","30.01","134","0.4","3.6","0.00","0.00"
"00:44:59","76.6","72.6","87.6","30.01","136","1.5","3.6","0.00","0.00"
"00:49:59","76.6","72.8","88","30.01","143","1.8","3.6","0.00","0.00"
"00:54:59","76.6","73.1","89","30.01","154","2.4","6","0.00","0.00"
"00:59:59","76.6","73.1","89","30.01","148","2.5","6","0.00","0.00"
"01:04:59","76.6","73.1","89","30.01","146","2.4","4.8","0.00","0.00"
"01:09:59","76.7","73.2","89","30.01","157","2.2","4.6","0.00","0.00"
"01:14:56","76.6","73.1","89","30.01","147","1.5","4.8","0.00","0.00"
"01:19:56","76.6","73.1","89","30.00","157","1.8","6","0.00","0.00"
"01:24:56","76.6","73.1","89","30.00","181","1.6","5.8","0.00","0.00"
"01:29:56","76.6","73.1","89","30.00","172","2","4.8","0.00","0.00"
"01:34:56","76.6","73.1","89","30.00","158","2.1","6","0.00","0.00"
"01:39:57","76.6","73.1","89","30.00","172","2.8","8.4","0.00","0.00"
"01:44:57","76.6","73.3","89.9","30.00","191","2.2","7.2","0.00","0.00"
"01:49:57","76.5","73.3","90","29.99","177","1.9","6.9","0.00","0.00"
"01:54:57","76.5","73.3","90","29.99","148","1.5","4.6","0.00","0.00"
"01:59:57","76.4","73.2","90","29.99","151","2.2","4.8","0.00","0.00"
"02:04:57","76.5","73.3","90","29.98","158","2.1","6","0.00","0.00"
"02:09:57","76.4","73.2","90","29.98","165","2.7","6","0.00","0.00"
"02:14:57","76.4","73.2","90","29.98","184","3.7","7.2","0.00","0.00"
"02:19:57","76.4","73.4","90.6","29.98","177","4.1","10.8","0.00","0.00"
"02:24:56","76.4","73.6","91","29.98","174","4","9.6","0.00","0.00"
"02:29:56","76.4","73.5","90.6","29.98","183","2.9","6","0.00","0.00"
"02:34:56","76.3","73.5","91","29.98","162","1.5","5.8","0.00","0.00"
"02:39:56","76.3","73.4","90.8","29.98","174","2","4.8","0.00","0.00"
"02:44:59","76.1","73.3","91","29.98","156","1.5","4.8","0.00","0.00"
"02:49:59","76.1","73.3","91","29.97","169","0.9","3.6","0.00","0.00"
"02:54:59","76","73.2","91","29.97","169","0.9","3.6","0.00","0.00"
"02:59:59","75.9","73.1","91","29.97","164","0.8","3.6","0.00","0.00"
"03:04:56","75.8","73","91","29.97","164","0.9","2.4","0.00","0.00"
"03:09:56","75.7","72.9","91","29.97","162","1.4","3.6","0.00","0.00"
"03:14:56","75.6","72.8","91","29.97","162","1.6","6","0.00","0.00"
"03:19:56","75.5","72.8","91.2","29.96","190","2.5","6","0.00","0.00"
"03:24:56","75.5","72.7","91","29.96","190","0.2","2.4","0.00","0.00"
"03:29:56","75.4","72.6","91","29.96","190","0.4","2.4","0.00","0.00"
"03:34:56","75.4","72.6","91","29.96","190","0.8","3.6","0.00","0.00"
"03:39:58","75.3","72.5","91","29.96","191","1.2","3.6","0.00","0.00"
"03:44:58","75.2","72.4","91","29.96","191","1.7","3.6","0.00","0.00"
"03:49:59","75.2","72.4","91","29.96","191","1.6","4.8","0.00","0.00"
"03:54:58","75.1","72.3","91","29.96","152","2","4.8","0.00","0.00"
"03:59:56","75.1","72.3","91","29.96","163","2.7","4.8","0.00","0.00"
"04:04:56","75.1","72.3","91","29.96","170","2.1","6","0.00","0.00"
"04:09:56","75.1","72.3","91","29.96","169","2","4.8","0.00","0.00"
"04:14:59","75.1","72.3","91","29.96","173","2.1","4.8","0.00","0.00"
"04:19:57","75.1","72.3","91","29.96","175","1.5","4.8","0.00","0.00"
"04:24:56","75.1","72.1","90.4","29.96","176","1.6","6","0.00","0.00"
"04:29:56","75.1","72","90","29.96","171","2.1","6","0.00","0.00"
"04:34:56","75.1","72","90","29.96","158","3.2","6","0.00","0.00"
"04:39:56","75.1","72","90","29.96","182","2.6","7.2","0.00","0.00"
"04:44:59","75.1","72","90","29.96","189","2.9","7.2","0.00","0.00"
"04:49:58","75.1","72","90","29.96","205","2.9","8.4","0.00","0.00"
"04:54:58","75.1","72","90","29.96","183","3.6","8.4","0.00","0.00"
"04:59:57","75.1","72","90","29.96","175","2.6","4.8","0.00","0.00"
"05:04:57","75","71.9","90","29.96","176","2.1","6","0.00","0.00"
"05:09:57","75","71.9","90","29.96","180","1.6","3.6","0.00","0.00"
"05:14:57","75","71.9","90","29.96","181","2.2","4.8","0.00","0.00"
"05:19:57","74.9","71.8","90","29.96","182","1.1","4.8","0.00","0.00"
"05:24:56","74.9","71.8","90","29.96","184","0.4","3.5","0.00","0.00"
"05:29:56","74.9","71.8","90","29.96","183","0.3","2.3","0.00","0.00"
"05:34:59","74.9","71.8","90","29.96","183","1.1","3.6","0.00","0.00"
"05:39:59","75","71.9","90","29.96","181","1","3.6","0.00","0.00"
"05:44:58","75","71.6","89.2","29.96","171","1.9","3.6","0.00","0.00"
"05:49:58","75","71.5","89","29.96","164","1.8","7.2","0.00","0.00"
"05:54:57","75","71.5","89","29.96","157","3.1","10.8","0.00","0.00"
"05:59:57","75","71.5","89","29.96","165","2.1","6","0.00","0.00"
"06:04:57","74.9","71.7","89.8","29.96","184","2.9","6","0.00","0.00"
"06:09:57","74.9","71.8","90","29.96","191","2.7","7.2","0.00","0.00"
"06:14:58","74.9","71.8","90","29.97","167","1.7","4.8","0.00","0.00"
"06:19:57","74.9","71.8","90","29.97","162","1.5","4.8","0.00","0.00"
"06:24:57","74.9","71.8","89.8","29.97","142","1.3","3.6","0.00","0.00"
"06:29:57","75","71.7","89.6","29.97","154","1.3","4.8","0.00","0.00"
"06:34:57","75","71.8","89.8","29.97","157","1.3","4.8","0.00","0.00"
"06:39:57","75","71.8","89.7","29.97","147","2.3","4.8","0.00","0.00"
"06:44:56","75","71.8","89.8","29.97","176","1.5","4.8","0.00","0.00"
"06:49:56","75","71.8","89.7","29.97","154","1.8","6","0.00","0.00"
"06:54:58","75","71.5","89","29.97","147","2.6","7.2","0.00","0.00"
"06:59:59","75.1","71.6","89","29.98","150","1.7","6.9","0.00","0.00"
"07:04:56","75.1","71.6","89","29.98","160","1.7","4.8","0.00","0.00"
"07:09:56","75.1","71.6","89","29.98","152","2.2","4.8","0.00","0.00"
"07:14:59","75.1","71.6","89","29.98","139","2","4.8","0.00","0.00"
"07:19:58","75.1","71.6","89","29.98","139","1","4.6","0.00","0.00"
"07:24:57","75.1","71.6","89","29.98","149","1.7","4.8","0.00","0.00"
"07:29:57","75.2","71.7","89","29.99","150","1.4","4.8","0.00","0.00"
"07:34:56","75.3","71.8","89","29.99","152","0.8","4.6","0.00","0.00"
"07:39:56","75.5","71.9","88.8","29.99","153","1.5","4.8","0.00","0.00"
"07:44:59","75.7","72.2","89","29.99","157","1.3","3.6","0.00","0.00"
"07:49:58","75.9","72.2","88.2","29.99","161","1.6","3.6","0.00","0.00"
"07:54:57","76.1","72","87.4","29.99","143","1.6","4.8","0.00","0.00"
"07:59:57","76.3","72.1","87","30.00","144","0.4","2.4","0.00","0.00"
"08:04:57","76.5","72.3","87.2","30.00","144","0.7","3.6","0.00","0.00"
"08:09:57","76.7","72.5","87","30.00","145","1.5","3.6","0.00","0.00"
"08:14:57","76.8","72.4","86.3","30.00","166","2.1","3.6","0.00","0.00"
"08:19:56","77","72.5","86","30.00","173","1.7","3.6","0.00","0.00"
"08:24:59","77.2","72.6","85.8","30.00","151","1.3","3.6","0.00","0.00"
"08:29:59","77.4","72.8","85.8","30.01","151","1.7","3.6","0.00","0.00"
"08:34:58","77.7","73.1","85.7","30.01","153","2.1","7.2","0.00","0.00"
"08:39:58","78.2","73.1","84.6","30.01","170","3.7","8.4","0.00","0.00"
"08:44:57","78.6","73.2","83.4","30.01","163","3.6","8.1","0.00","0.00"
"08:49:58","78.9","73.1","82.6","30.00","164","3.1","7.2","0.00","0.00"
"08:54:58","79.1","73.1","82.2","30.00","157","3","6.9","0.00","0.00"
"08:59:59","79.2","73.2","82","30.00","183","2.8","6","0.00","0.00"
"09:04:56","79.5","73.6","82.4","30.00","197","3.1","7.2","0.00","0.00"
"09:09:57","79.7","73.5","81.4","30.00","175","4.1","8.4","0.00","0.00"
"09:14:58","79.9","73.5","81","30.00","168","2.8","6","0.00","0.00"
"09:19:59","80.2","73.8","81","30.00","164","3.1","7.2","0.00","0.00"
"09:24:56","80.4","73.9","80.6","30.00","169","2.2","7.2","0.00","0.00"
"09:29:58","80.8","74.2","80.4","30.00","174","2.8","7.2","0.00","0.00"
"09:34:58","81.3","74.2","79.2","30.00","146","2.9","7.2","0.00","0.00"
"09:39:59","81.4","74.2","78.8","30.00","207","3","9.6","0.00","0.00"
"09:44:56","81.3","73.8","78.1","30.00","187","4.6","12","0.00","0.00"
"09:49:56","81.3","74.1","78.7","30.00","181","2.9","6","0.00","0.00"
"09:54:56","81.4","74","78.3","30.00","204","3.8","8.4","0.00","0.00"
"09:59:56","81.6","74.1","78.2","30.01","193","3","7.2","0.00","0.00"
"10:04:58","81.9","74.4","78.2","30.01","193","3.3","8.4","0.00","0.00"
"10:09:59","82.1","74.1","76.8","30.01","187","3.9","8.4","0.00","0.00"
"10:14:59","82.1","74.1","76.7","30.01","191","3.5","8.4","0.00","0.00"
"10:19:56","82.1","74","76.4","30.00","208","3.4","8.4","0.00","0.00"
"10:24:56","82.2","74.4","77.3","30.00","197","2.6","6","0.00","0.00"
"10:29:56","82.2","74.2","76.6","30.00","208","3.2","7.2","0.00","0.00"
"10:34:57","82.2","73.9","76","30.00","210","3.3","7.2","0.00","0.00"
"10:39:58","82.3","74","76","30.00","207","3.3","7.2","0.00","0.00"
"10:44:57","82.3","74.1","76.2","30.00","194","3.2","6","0.00","0.00"
"10:49:58","82.4","74.2","76.2","30.00","184","3.5","8.4","0.00","0.00"
"10:54:59","82.6","74.5","76.5","30.00","190","2.5","6","0.00","0.00"
"10:59:59","82.9","74.7","76.3","30.01","203","3.1","7.2","0.00","0.00"
"11:04:57","83.2","74.8","76","30.01","194","3.5","6.9","0.00","0.00"
"11:09:58","83.4","74.9","75.7","30.01","194","2.8","6","0.00","0.00"
"11:14:59","83.5","74.9","75.4","30.01","193","3.3","8.4","0.00","0.00"
"11:19:56","83.7","75","75.2","30.00","188","3","7.2","0.00","0.00"
"11:24:56","83.9","74.8","74.4","30.00","199","4.1","8.4","0.00","0.00"
"11:29:56","84.1","75.2","74.7","30.01","203","3.4","8.1","0.00","0.00"
"11:34:56","84.5","75.6","74.7","30.01","197","3.4","6","0.00","0.00"
"11:39:58","85","75.8","74","30.01","166","3.3","7.2","0.00","0.00"
"11:44:58","85.3","75.7","73.2","30.01","199","3.6","6.9","0.00","0.00"
"11:49:59","85.5","76.1","73.5","30.00","183","3.2","10.8","0.00","0.00"
"11:54:56","85.8","75.6","71.7","30.00","180","4.7","12","0.00","0.00"
"11:59:56","86.2","75.9","71.4","30.00","206","4.1","12","0.00","0.00"
"12:04:57","86.6","76","70.7","30.00","196","3.6","7.2","0.00","0.00"
"12:09:58","87.1","76","69.9","30.00","219","4.6","10.8","0.00","0.00"
"12:14:59","87.7","76.5","69.4","30.00","196","4.5","12","0.00","0.00"
"12:19:56","88.2","76.6","68.5","29.99","198","5.4","13.2","0.00","0.00"
"12:24:57","87.9","75.8","67.5","29.99","183","5.3","12","0.00","0.00"
"12:29:58","88.2","76.6","68.7","29.99","189","4.2","10.8","0.00","0.00"
"12:34:58","88.6","76.5","67.6","29.99","188","4.5","10.4","0.00","0.00"
"12:39:56","88.8","76.3","66.8","29.99","187","4.3","8.4","0.00","0.00"
"12:44:56","88.6","76.3","67","29.99","191","3.8","8.4","0.00","0.00"
"12:49:57","88.5","76.2","67.2","29.99","183","5.4","12","0.00","0.00"
"12:54:57","88.4","76.3","67.7","29.99","189","5.5","12","0.00","0.00"
"12:59:57","89.3","77.1","67.4","29.99","191","5","10.8","0.00","0.00"
"13:04:58","90.1","77.3","66.2","29.98","186","4.5","12","0.00","0.00"
"13:09:59","89.9","76.3","64.5","29.98","191","4.9","9.6","0.00","0.00"
"13:14:57","89.4","75.9","64.6","29.98","197","5.6","9.6","0.00","0.00"
"13:19:58","89.3","75.6","64.1","29.98","207","6.6","13.2","0.00","0.00"
"13:24:59","89.9","76.1","64.1","29.98","199","5.3","12.7","0.00","0.00"
"13:29:56","90.1","76.3","64.1","29.98","208","6.5","13.2","0.00","0.00"
"13:34:56","90.8","77.3","64.7","29.98","219","3.9","10.8","0.00","0.00"
"13:39:58","91.1","76.9","63.4","29.98","227","5.4","13.2","0.00","0.00"
"13:44:59","91.1","76.9","63.3","29.98","218","5","10.8","0.00","0.00"
"13:49:56","91.1","76.6","62.7","29.98","198","6.5","15","0.00","0.00"
"13:54:57","91.3","76.8","62.7","29.98","214","4.9","12","0.00","0.00"
"13:59:58","92.3","76.9","61","29.98","202","5","11.5","0.00","0.00"
"14:04:59","92.8","77.8","61.8","29.97","224","5.9","13.2","0.00","0.00"
"14:09:56","92.9","76.7","59.5","29.97","182","4.6","12.7","0.00","0.00"
"14:14:58","93.3","76.7","58.8","29.97","211","5.9","15","0.00","0.00"
"14:19:59","93.1","76.1","58","29.97","205","6.1","12","0.00","0.00"
"14:24:56","93.5","76.5","58","29.97","197","4.8","13.2","0.00","0.00"
"14:29:57","93.8","76.7","57.7","29.97","203","4.4","10.8","0.00","0.00"
"14:34:58","94","75.7","55.5","29.96","225","5.8","15","0.00","0.00"
"14:39:56","93.6","75.4","55.8","29.96","204","6.8","13.2","0.00","0.00"
"14:44:56","93.3","75.6","56.6","29.96","198","5.9","17.3","0.00","0.00"
"14:49:58","93.4","75.5","56.3","29.96","185","5.3","12","0.00","0.00"
"14:54:58","93.7","76.1","56.9","29.96","193","4.4","12","0.00","0.00"
"14:59:56","95.1","76.1","54.6","29.96","215","5.4","12","0.00","0.00"
"15:04:57","95.7","76.1","53.4","29.95","205","4.8","9.6","0.00","0.00"
"15:09:58","96.1","75.3","51.5","29.95","231","5.3","10.8","0.00","0.00"
"15:14:56","96.4","75.5","51.4","29.95","199","5.5","12","0.00","0.00"
"15:19:57","96.5","74.7","49.8","29.94","203","7.2","16.1","0.00","0.00"
"15:24:58","96.6","75.3","50.7","29.94","198","5","15","0.00","0.00"
"15:29:59","96.9","75.1","49.9","29.94","203","6.1","13.2","0.00","0.00"
"15:34:58","96.7","75.1","50.2","29.93","183","5.1","12","0.00","0.00"
"15:39:57","96.6","75.4","50.8","29.93","199","4.9","13.2","0.00","0.00"
"15:44:58","97","75.4","50.2","29.93","193","5.8","15.6","0.00","0.00"
"15:49:59","97.3","75.4","49.8","29.93","214","6.2","16.1","0.00","0.00"
"15:54:56","97.7","75.3","48.9","29.93","205","4.4","8.4","0.00","0.00"
"15:59:57","97.7","75.2","48.8","29.93","196","6.3","13.2","0.00","0.00"
"16:04:58","96.6","74.6","49.6","29.93","192","7.7","16.8","0.00","0.00"
"16:09:59","95.8","74.6","50.7","29.93","204","6.2","13.2","0.00","0.00"
"16:14:56","95.7","75","51.5","29.93","191","4.9","12","0.00","0.00"
"16:19:58","96.2","75.5","51.7","29.92","201","7.6","17.3","0.00","0.00"
"16:24:58","96.7","75.3","50.4","29.92","206","6.6","15.6","0.00","0.00"
"16:29:59","97.2","75","49.3","29.92","197","7.2","13.2","0.00","0.00"
"16:34:56","97.5","74.7","48.4","29.91","195","6.3","12","0.00","0.00"
"16:39:58","97.7","75.1","48.7","29.91","200","4.7","10.4","0.00","0.00"
"16:44:59","97.9","74.9","48","29.91","178","6.9","18","0.00","0.00"
"16:49:56","97.7","74.8","48.2","29.91","196","7.9","18.4","0.00","0.00"
"16:54:57","97.5","74.5","48","29.91","173","6","16.1","0.00","0.00"
"16:59:58","97.5","74.8","48.6","29.92","210","5.5","12","0.00","0.00"
"17:04:56","97.7","75.2","48.8","29.92","199","4.1","13.2","0.00","0.00"
"17:09:56","98","75.2","48.3","29.92","230","4.2","8.4","0.00","0.00"
"17:14:58","98.2","74.7","47.3","29.92","214","5.1","12","0.00","0.00"
"17:19:59","97.7","73.9","46.7","29.91","195","7.2","17.3","0.00","0.00"
"17:24:59","96.5","73.3","47.6","29.91","214","4.9","17.3","0.00","0.00"
"17:29:56","95.7","73.2","48.5","29.93","222","2.9","8.4","0.00","0.00"
"17:34:58","94.9","73.6","50.4","29.93","299","4.7","12","0.00","0.00"
"17:39:56","93.2","74.1","54.1","29.93","318","2.5","12","0.00","0.00"
"17:44:57","91.9","74.2","56.6","29.94","349","3.4","11.5","0.00","0.00"
"17:49:59","90.7","73.8","58","29.94","329","5.9","21.9","0.00","0.00"
"17:54:56","89.1","73.7","60.6","29.94","336","4","12","0.00","0.00"
"17:59:57","87.9","73.7","62.9","29.95","349","4.5","14.4","0.00","0.00"
"18:04:59","86.7","73.6","65","29.95","330","6.1","15.6","0.00","0.00"
"18:09:56","85.7","72.5","64.9","29.95","342","7.4","21.6","0.00","0.00"
"18:14:58","84.8","71.9","65.5","29.98","342","8.2","24.2","0.00","0.00"
"18:19:59","82.2","72.2","72","29.98","334","10.3","28.8","0.00","0.00"
"18:24:59","79.5","71.4","76.2","29.98","352","11.2","28.8","0.07","0.03"
"18:29:59","76.6","70.6","81.6","30.00","345","4.7","20.7","0.15","0.14"
"18:34:58","74.9","70.1","85.2","30.00","291","1.5","4.6","0.18","0.18"
"18:39:59","74.1","70.4","88.3","30.00","269","0.3","3.5","0.19","0.19"
"18:44:58","73.8","70.7","90","30.00","333","2.3","6","0.19","0.19"
"18:49:57","73.4","70.3","90","29.98","346","1.2","3.6","0.19","0.19"
"18:54:57","73.1","70.3","90.7","29.98","346","0.5","2.4","0.19","0.19"
"18:59:57","73","70.4","91.8","29.98","346","0.8","2.4","0.20","0.20"
"19:04:57","72.9","70.8","93","29.94","346","0.6","3.6","0.20","0.20"
"19:09:57","72.9","71","93.8","29.94","346","0.7","2.4","0.20","0.20"
"19:14:56","72.9","71.1","94","29.94","346","0.3","1.2","0.20","0.20"
"19:19:59","73","71.4","94.8","29.94","346","0","0","0.20","0.20"
"19:24:58","73.2","71.7","95","29.94","346","0.2","2.4","0.20","0.20"
"19:29:59","73.3","71.8","95","29.95","346","0.2","1.2","0.20","0.13"
"19:34:58","73.3","71.8","95","29.95","345","0.5","2.4","0.20","0.05"
"19:39:59","73.4","71.9","95","29.95","350","1.7","4.8","0.20","0.02"
"19:44:58","73.3","71.8","95","29.97","349","2.4","4.8","0.20","0.01"
"19:49:59","73.1","71.6","95","29.97","346","2.8","6","0.20","0.01"
"19:54:58","73","71.2","94.2","29.97","275","2.1","8.4","0.20","0.01"
"19:59:58","73","71.2","94.2","29.97","257","0.4","1.2","0.20","0.01"
"20:04:59","73","71.5","94.9","29.97","257","0.2","1.2","0.20","0.00"
"20:09:58","73","71.5","95","29.97","245","1.4","4.8","0.20","0.00"
"20:14:59","73","71.5","95","29.98","342","2.1","6","0.20","0.00"
"20:19:56","72.9","71.1","94","29.98","347","1.2","7.2","0.20","0.00"
"20:24:59","73","71.2","94","29.98","305","1.5","6.9","0.20","0.00"
"20:29:59","73","71.2","94","29.98","298","0.3","2.4","0.20","0.00"
"20:34:59","73","71.4","94.7","29.98","296","0.1","1.2","0.20","0.00"
"20:39:57","73","71.3","94.2","29.98","290","0","0","0.20","0.00"
"20:44:59","73.1","71.6","95","29.98","283","0.6","3.6","0.20","0.00"
"20:49:56","73.1","71.6","95","29.98","283","0.1","3.5","0.20","0.00"
"20:54:56","73.1","71.6","95","29.98","283","0.3","2.4","0.20","0.00"
"20:59:57","73","71.5","95","29.98","283","0.1","2.4","0.20","0.00"
"21:04:58","73.1","71.6","95","29.98","283","0.4","2.4","0.20","0.00"
"21:09:58","73.1","71.6","95","29.98","283","0","0","0.20","0.00"
"21:14:58","73.1","71.7","95.4","29.98","283","0.1","1.2","0.20","0.00"
"21:19:56","73.2","72","96","29.98","283","0","1.2","0.20","0.00"
"21:24:56","73.1","71.9","96","29.98","283","0","0","0.20","0.00"
"21:29:57","73","71.8","96","29.98","283","0","0","0.20","0.00"
"21:34:57","73","71.8","96","29.98","283","0","0","0.20","0.00"
"21:39:58","73","71.8","96","29.98","283","0","0","0.20","0.00"
"21:44:59","73","71.8","96","29.98","283","0","0","0.20","0.00"
"21:49:59","72.9","71.8","96","29.98","283","0","0","0.20","0.00"
"21:54:59","72.9","71.7","96","29.98","283","0","0","0.20","0.00"
"21:59:56","72.8","71.6","96","29.98","283","0","0","0.20","0.00"
"22:04:57","72.9","71.8","96.3","29.98","283","0","0","0.20","0.00"
"22:09:57","73","72.1","97","29.98","283","0","0","0.20","0.00"
"22:14:59","73.1","72.2","97","29.99","283","0","0","0.20","0.00"
"22:19:56","73.1","72.1","96.8","29.99","283","0","0","0.20","0.00"
"22:24:56","72.8","71.6","96","29.99","283","0","0","0.20","0.00"
"22:29:56","72.8","71.8","96.9","30.00","283","0","0","0.20","0.00"
"22:34:56","72.9","72","97","30.00","283","0","0","0.20","0.00"
"22:39:58","73.1","72.2","97","30.00","283","0","0","0.20","0.00"
"22:44:58","73.1","72.2","97","30.00","283","0","0","0.20","0.00"
"22:49:59","73.1","72.2","97","29.99","283","0","0","0.20","0.00"
"22:54:59","73.1","72.2","97","29.99","283","0","0","0.20","0.00"
"22:59:56","73","72.1","97","29.99","283","0","0","0.20","0.00"
"23:04:56","73","72.1","97","29.99","283","0","0","0.20","0.00"
"23:09:56","72.9","72","97","29.99","283","0","0","0.20","0.00"
"23:14:57","72.9","72","97","29.99","283","0","0","0.20","0.00"
"23:19:58","72.8","71.8","96.5","29.99","283","0","0","0.20","0.00"
"23:24:58","72.7","71.7","96.8","29.99","283","0","0","0.20","0.00"
"23:29:58","72.6","71.7","97","29.99","283","0","0","0.20","0.00"
"23:34:59","72.5","71.6","97","29.99","283","0","0","0.20","0.00"
"23:39:56","72.5","71.6","97","29.99","283","0","0","0.20","0.00"
"23:44:56","72.5","71.6","97","30.00","283","0","0","0.20","0.00"
"23:49:57","72.6","71.7","97","30.00","283","0","0","0.20","0.00"
"23:54:57","72.6","71.7","97","30.00","283","0","0","0.20","0.00"
